Find Starlink 35148

NORAD ID: 65844 Int'l Des: 2025-221 Owner: SPXS Country: US Constellation: starlink operational
LEOCIRCULAR

Current View

Loading 3D Globe...

About Starlink 35148

Description loading...

Upcoming Passes

Passes for default location (London). Set your location on the main map for personalized predictions.

Altitude History

Loading altitude history...

Two-Line Element Set

1 65844U 25221X 26150.14664499 .00055784 00000-0 16480-2 0 9996
2 65844 53.1606 69.3578 0000740 165.0763 195.0262 15.34435977 37213
Epoch: May 30, 2026 • Age: 15 hours

Current Status

Altitude 462.7 km
Velocity 7.64 km/s
Sub-Earth Point 23.53°N, 65.69°E
Launch Date Sep 29, 2025
Age 0.6 years
Type internet

Technical Details

Classification Payload
Mass 575.00 kg
Dry Mass 530.00 kg
Total Mass 575.00 kg
Length 0.30 m
Diameter 4.10 m
Span 29.00 m
Shape Box + pan
Manufacturer SPXS
Bus Type Starlink V2MO
Phase Status In Orbit
Owner/State SPXS/US

Most Searched